Regional Weather Roundup
Issued by NWS

Home | Current Version | Previous Version | Text Only | Print | Product List | Glossary On
Versions: 1 2 3 4 5 6 7 8 9 10 11 12 13 14 15 16 17 18 19 20 21 22 23 24 25 26 27 28 29 30 31 32 33 34 35 36 37 38 39 40 41 42 43 44 45 46 47 48 49 50
000
ASUS43 KLOT 151809
RWRIL

ILLINOIS REGIONAL WEATHER ROUNDUP
NATIONAL WEATHER SERVICE CHICAGO/ROMEOVILLE IL
100 PM CDT MON JUL 15 2019

NOTE: "FAIR" INDICATES FEW OR NO CLOUDS BELOW 12,000 FEET WITH NO
SIGNIFICANT WEATHER AND/OR OBSTRUCTIONS TO VISIBILITY.

* THESE STATIONS ARE NOT UNDER NWS QUALITY CONTROL. THEY ALSO MAY NOT
  REPORT WEATHER SUCH AS PRECIPITATION OR FOG.

ILZ001-002-007-009-015-016-024-151900-
NORTHWEST ILLINOIS

CITY           SKY/WX    TMP DP  RH WIND       PRES   REMARKS
MOLINE         FAIR      87  66  49 S13G21    30.01F HX  89
6HR MIN TEMP:  74; 6HR MAX TEMP:  87;

STERLING*      FAIR      86  68  54 SW10      30.04F HX  89
SAVANNA*       FAIR      86  68  54 S13       30.02F HX  89
$$

ILZ003-004-008-010-011-017-018-151900-
NORTH CENTRAL ILLINOIS

CITY           SKY/WX    TMP DP  RH WIND       PRES   REMARKS
ROCKFORD       FAIR      88  65  46 SW14G24   30.04F HX  90
6HR MIN TEMP:  75; 6HR MAX TEMP:  88;

FREEPORT*      FAIR      84  67  54 SW16      30.04F HX  87
ROCHELLE*      FAIR      86  67  52 SW15      30.05F HX  89
DE KALB*       FAIR      88  68  50 SW15G21   30.05F HX  92
PERU*          FAIR      86  65  49 S10G17    30.05F HX  87
$$

ILZ005-006-012>014-019>023-151900-
NORTHEAST ILLINOIS

CITY           SKY/WX    TMP DP  RH WIND       PRES   REMARKS
CHICAGO-OHARE  FAIR      89  63  41 SW15G23   30.03F HX  90
6HR MIN TEMP:  76; 6HR MAX TEMP:  89;

CHICAGO-MIDWAY FAIR      89  66  46 W17G25    30.04F HX  91
6HR MIN TEMP:  77; 6HR MAX TEMP:  89;

AURORA         FAIR      87  67  51 S12       30.05F HX  90
6HR MIN TEMP:  73; 6HR MAX TEMP:  87;

LANSING*       FAIR      87  67  51 SW12G20   30.06F HX  90
JOLIET*        FAIR      89  69  51 SW13G20   30.06F HX  92
WAUKEGAN       FAIR      90  63  40 SW18G26   30.01F HX  91
6HR MIN TEMP:  77; 6HR MAX TEMP:  90;

DUPAGE AIRPORT FAIR      88  66  48 S14       30.05F HX  90
6HR MIN TEMP:  75; 6HR MAX TEMP:  88;

KANKAKEE*      FAIR      87  67  51 SW9       30.08F HX  90
WHEELING       FAIR      91  62  37 SW14G22   30.04F HX  91
6HR MIN TEMP:  78; 6HR MAX TEMP:  91;

MORRIS*        FAIR      87  67  50 SW14      30.04F HX  90
ROMEOVILLE*    FAIR      89  67  48 SW14      30.05F HX  92
NORTHERLY ISL    N/A     87  60  40 S5          N/A  HX  87
$$

LMZ740>746-151900-
SOUTHERN LAKE MICHIGAN

STATION/POSITION SKY/WX   TEMP    WIND        PRES    VSBY  WAVE
                          AIR SEA DIR/SP/G                  HT/PER
                          (F)     (DEG/KT/KT) (MB)    (MI)  (FT/S)
SOUTHERN BUOY              72 69  200/ 10/ 12 1016.9F         1/ 3
WINTHROP HARBOR            83 71  250/ 10/ 16   N/A           1
WAUKEGAN HARBOR            80 70  200/  8/ 10   N/A           1
WILMETTE HARBOR                   230/ 10/ 14 1017.1          1/ 2
HARRISON CRIB              85     220/  9/ 11   N/A
NORTHERLY ISL              88     220/ 11/ 15   N/A
CALUMET HARBOR             86     200/ 12/ 16 1017.0F
BURNS HARBOR               86     240/  7/  9 1017.9F
MICHIGAN CITY              80     290/  2/  3   N/A
MICHIGAN CITY 6N           80 77  310/  2/  4   N/A           1
ST. JOSEPH                 77 75  250/  4/  4 1017.5          1/ 2
$$

ILZ025>027-034>036-040-047-049-050-058-095>099-151900-
WEST-CENTRAL ILLINOIS

CITY           SKY/WX    TMP DP  RH WIND       PRES   REMARKS
QUINCY         MOSUNNY   83  65  54 SE20G28   30.04F HX  85
GALESBURG*     FAIR      86  68  55 SE8G16    30.05F HX  89
MACOMB*        PTSUNNY   83  69  61 SE16      30.07F HX  87
JACKSONVILLE*  MOSUNNY   81  67  62 S16G24    30.08S HX  83
PITTSFIELD*    MOSUNNY   79  70  72 SE14      30.07F HX  82
$$

ILZ028>032-037-038-041>044-048-051>054-059>061-151900-
CENTRAL ILLINOIS

CITY           SKY/WX    TMP DP  RH WIND       PRES   REMARKS
PONTIAC        FAIR      88  66  48 SW17      30.08F HX  90
BLOOMINGTON    PTSUNNY   83  71  67 S14       30.10F HX  87
DECATUR        FAIR      85  66  53 S15       30.10F HX  87
PEORIA         FAIR      85  69  58 SW15G21   30.06F HX  89
6HR MIN TEMP:  72; 6HR MAX TEMP:  85;

LACON*         FAIR      85  69  57 SW9       30.04F HX  89
LINCOLN*       PTSUNNY   85  70  60 S14G20    30.08F HX  90
SPRINGFIELD    PTSUNNY   83  69  62 S13G22    30.08F HX  86
6HR MIN TEMP:  72; 6HR MAX TEMP:  84;

TAYLORVILLE    CLOUDY    79  66  65 S13G20    30.10S HX  81
6HR MIN TEMP:  72; 6HR MAX TEMP:  83;

$$

ILZ033-039-045-046-055>057-062-063-151900-
EAST-CENTRAL ILLINOIS

CITY           SKY/WX    TMP DP  RH WIND       PRES   REMARKS
CHAMPAIGN      FAIR      85  70  60 S15G25    30.11S HX  89
DANVILLE*      FAIR      86  68  54 S9        30.09S HX  90
RANTOUL*       FAIR      86  69  57 S12G18    30.10S HX  90
MATTOON        PTSUNNY   81  68  64 S9        30.11F HX  84
PARIS*         PTSUNNY   86  71  59 S14       30.13S HX  91
$$

ILZ079-100>102-151900-
SOUTHWEST ILLINOIS

CITY           SKY/WX    TMP DP  RH WIND       PRES   REMARKS
ALTON          LGT RAIN  70  70 100 E14       30.09F
BELLEVILLE     RAIN      72  70  94 E17       30.06F FOG
CAHOKIA*       LGT RAIN  72  69  90 E13G22    30.04F
$$

ILZ064>066-069>071-074>076-080>082-084>086-088>090-092>094-151900-
SOUTH-CENTRAL ILLINOIS

CITY           SKY/WX    TMP DP  RH WIND       PRES   REMARKS
CARBONDALE     RAIN      71  70  96 E18G29    30.04F FOG
6HR MIN TEMP:  71; 6HR MAX TEMP:  73; 6HR PCP:  0.68;

CAIRO*         CLOUDY    73  70  93 E16G25    30.02F
EFFINGHAM*     RAIN      75  68  77 SE7       30.14F
MARION         RAIN      72  70  94 E12       30.08F
MT. VERNON     LGT RAIN  74  72  93 SE8       30.11F
CENTRALIA*     LGT RAIN  73  70  88 E8        30.09F
SALEM*         LGT RAIN  74  72  93 E7        30.11F
METROPOLIS*    RAIN      73  71  95 E8        30.07F
$$

ILZ067-068-072-073-078-083-087-091-151900-
SOUTHEAST ILLINOIS

CITY           SKY/WX    TMP DP  RH WIND       PRES   REMARKS
LAWRENCEVILLE  LGT RAIN  79  73  82 S7        30.14S HX  82
FLORA*         LGT RAIN  76  74  92 CALM      30.12F
FAIRFIELD*     LGT RAIN  74  74 100 E9        30.11F
HARRISBURG*    RAIN      73  70  89 SE10G16   30.12R
ROBINSON*      CLOUDY    80  71  75 S10       30.14F HX  83
CARMI*         RAIN      73  72  94 E8        30.11F
$$

ABBREVIATIONS USED IN REMARKS
   TC - TEMPERATURE IN CELSIUS
  WCI - WIND CHILL INDEX
   HX - HEAT INDEX
  VSB - VISIBILITY
$$





USA.gov is the U.S. government's official web portal to all federal, state and local government web resources and services.